FW1241 Weather Reports


time (UTC)temp
C
wind
direction
speed
KPH
gust
KPH
rain 1hr
cm
rain 24hr
cm
rain mn
cm
humidity
%
barometer
mb
20260506213604 25 186 0.0 3.2 0.00 0.00 0.00 45 1017.0
20260506211605 25 334 0.0 4.8 0.00 0.00 0.00 45 1017.3
20260506205604 25 102 0.0 3.2 0.00 0.00 0.00 45 1017.4
20260506203605 24 180 0.0 1.6 0.00 0.00 0.00 46 1017.5
20260506203104 24 168 0.0 1.6 0.00 0.00 0.00 46 1017.6
20260506202605 24 293 1.6 8.0 0.00 0.00 0.00 45 1017.7
20260506202105 24 263 1.6 8.0 0.00 0.00 0.00 46 1017.7
20260506201604 24 281 0.0 3.2 0.00 0.00 0.00 45 1017.9
20260506200105 24 216 0.0 3.2 0.00 0.00 0.00 48 1018.0
20260506195604 24 78 1.6 4.8 0.00 0.00 0.00 46 1018.1
20260506194104 24 305 0.0 1.6 0.00 0.00 0.00 47 1018.3
20260506193104 24 163 1.6 4.8 0.00 0.00 0.00 47 1018.5
20260506192105 23 159 0.0 4.8 0.00 0.00 0.00 48 1018.6
20260506191604 23 171 0.0 4.8 0.00 0.00 0.00 49 1018.5
20260506191104 23 114 0.0 3.2 0.00 0.00 0.00 53 1018.7
20260506185105 22 280 0.0 3.2 0.00 0.00 0.00 51 1018.8
20260506184106 23 279 0.0 1.6 0.00 0.00 0.00 47 1019.0
20260506183105 23 183 1.6 4.8 0.00 0.00 0.00 49 1019.1
20260506182104 22 287 0.0 1.6 0.00 0.00 0.00 50 1019.2
20260506181105 22 311 0.0 3.2 0.00 0.00 0.00 53 1019.2
20260506180104 22 281 0.0 4.8 0.00 0.00 0.00 51 1019.3
20260506174105 22 159 0.0 3.2 0.00 0.00 0.00 55 1019.3
20260506173605 22 34 0.0 3.2 0.00 0.00 0.00 55 1019.4
20260506171105 21 168 1.6 8.0 0.00 0.00 0.00 57 1019.5
20260506170104 20 197 0.0 4.8 0.00 0.00 0.00 58 1019.6
20260506165105 20 190 1.6 4.8 0.00 0.00 0.00 58 1019.8
20260506164104 20 169 1.6 4.8 0.00 0.00 0.00 60 1019.8
20260506163604 20 176 1.6 4.8 0.00 0.00 0.00 60 1019.8
20260506162605 20 191 0.0 3.2 0.00 0.00 0.00 61 1019.8
20260506161104 19 184 0.0 4.8 0.00 0.00 0.00 62 1019.9
20260506160105 19 197 0.0 3.2 0.00 0.00 0.00 63 1019.9
20260506155605 18 169 0.0 4.8 0.00 0.00 0.00 63 1019.9
20260506155105 18 124 1.6 3.2 0.00 0.00 0.00 65 1019.9
20260506154105 18 129 0.0 4.8 0.00 0.00 0.00 66 1019.9
20260506153605 18 156 1.6 4.8 0.00 0.00 0.00 66 1019.9
20260506153105 18 172 0.0 0.0 0.00 0.00 0.00 67 1019.9
20260506152605 17 194 0.0 1.6 0.00 0.00 0.00 68 1019.9
20260506152105 17 191 0.0 3.2 0.00 0.00 0.00 67 1020.0
20260506151605 17 91 0.0 0.0 0.00 0.00 0.00 70 1019.9
20260506150605 17 125 0.0 1.6 0.00 0.00 0.00 72 1020.0
20260506150105 16 160 0.0 0.0 0.00 0.00 0.00 74 1020.1
20260506145605 16 121 0.0 1.6 0.00 0.00 0.00 75 1020.0
20260506144605 15 120 0.0 0.0 0.00 0.00 0.00 76 1020.0
20260506143105 14 124 0.0 0.0 0.00 0.00 0.00 82 1019.9
20260506142605 13 125 0.0 0.0 0.00 0.00 0.00 83 1019.8
20260506141605 12 128 0.0 0.0 0.00 0.00 0.00 87 1019.8
20260506140604 11 128 0.0 0.0 0.00 0.00 0.00 88 1019.7
20260506140104 11 128 0.0 0.0 0.00 0.00 0.00 88 1019.5
20260506135604 11 128 0.0 0.0 0.00 0.00 0.00 89 1019.5
20260506134605 11 129 0.0 0.0 0.00 0.00 0.00 89 1019.3
20260506133105 10 129 0.0 0.0 0.00 0.00 0.00 91 1019.1
20260506131105 10 129 0.0 0.0 0.00 0.00 0.00 90 1018.9
20260506130105 10 129 0.0 0.0 0.00 0.00 0.00 90 1018.8
20260506124604 10 129 0.0 0.0 0.00 0.00 0.00 90 1018.5
20260506122604 10 129 0.0 0.0 0.00 0.00 0.00 90 1018.6
20260506122104 10 129 0.0 0.0 0.00 0.00 0.00 90 1018.6
20260506121605 10 129 0.0 0.0 0.00 0.00 0.00 90 1018.6
20260506121105 10 129 0.0 0.0 0.00 0.00 0.00 90 1018.5
20260506120605 10 129 0.0 0.0 0.00 0.00 0.00 90 1018.5
20260506120105 10 129 0.0 0.0 0.00 0.00 0.00 90 1018.4
20260506114604 10 129 0.0 0.0 0.00 0.00 0.00 90 1018.4
20260506112105 10 129 0.0 0.0 0.00 0.00 0.00 90 1018.1
20260506111604 10 129 0.0 0.0 0.00 0.00 0.00 90 1018.0
20260506111105 11 129 0.0 0.0 0.00 0.00 0.00 90 1017.9
20260506110605 11 129 0.0 0.0 0.00 0.00 0.00 90 1017.9
20260506110105 11 129 0.0 0.0 0.00 0.00 0.00 90 1017.9
20260506104105 11 129 0.0 0.0 0.00 0.00 0.00 89 1017.6
20260506103105 11 129 0.0 0.0 0.00 0.00 0.00 89 1017.6
20260506102605 11 129 0.0 0.0 0.00 0.00 0.00 89 1017.5
20260506102104 11 129 0.0 0.0 0.00 0.00 0.00 88 1017.6
20260506100605 11 129 0.0 0.0 0.00 0.00 0.00 88 1017.6
20260506100105 11 129 0.0 0.0 0.00 0.00 0.00 88 1017.6
20260506095105 11 129 0.0 0.0 0.00 0.00 0.00 88 1017.6
20260506094605 11 129 0.0 0.0 0.00 0.00 0.00 88 1017.6
20260506094104 11 129 0.0 0.0 0.00 0.00 0.00 88 1017.6
20260506093605 11 129 0.0 0.0 0.00 0.00 0.00 88 1017.7
20260506093105 11 129 0.0 0.0 0.00 0.00 0.00 88 1017.7
20260506092105 11 129 0.0 0.0 0.00 0.00 0.00 88 1017.6
20260506091604 11 130 0.0 0.0 0.00 0.00 0.00 88 1017.6
20260506090105 11 129 0.0 0.0 0.00 0.00 0.00 87 1017.5
20260506084604 11 129 0.0 0.0 0.00 0.00 0.00 86 1017.6
20260506083605 12 129 0.0 0.0 0.00 0.00 0.00 85 1017.6
20260506082604 12 129 0.0 0.0 0.00 0.00 0.00 84 1017.4
20260506081604 12 130 0.0 0.0 0.00 0.00 0.00 82 1017.5
20260506081106 12 129 0.0 0.0 0.00 0.00 0.00 82 1017.5
20260506080604 12 130 0.0 0.0 0.00 0.00 0.00 83 1017.4
20260506071605 12 128 0.0 0.0 0.00 0.00 0.00 83 1017.1
20260506070605 12 128 0.0 0.0 0.00 0.00 0.00 82 1017.0
20260506070105 13 128 0.0 0.0 0.00 0.00 0.00 82 1016.9
20260506062104 13 128 0.0 0.0 0.00 0.00 0.00 79 1016.5
20260506061605 13 129 0.0 0.0 0.00 0.00 0.00 80 1016.5
20260506051105 14 128 0.0 0.0 0.00 0.00 0.00 76 1015.9
20260506050605 14 128 0.0 0.0 0.00 0.00 0.00 77 1015.9
20260506050105 15 128 0.0 0.0 0.00 0.00 0.00 77 1015.8
20260506043605 15 129 0.0 0.0 0.00 0.00 0.00 73 1015.4
20260506042604 15 129 0.0 0.0 0.00 0.00 0.00 72 1015.4
20260506041104 16 128 0.0 0.0 0.00 0.00 0.00 68 1015.2
20260506040604 16 129 0.0 0.0 0.00 0.00 0.00 67 1015.2
20260506035605 17 129 0.0 0.0 0.00 0.00 0.00 66 1015.1
20260506034605 17 129 0.0 0.0 0.00 0.00 0.00 61 1015.0
20260506033105 18 128 0.0 0.0 0.00 0.00 0.00 59 1014.8
20260506032605 18 128 0.0 0.0 0.00 0.00 0.00 57 1014.7
20260506031605 18 128 0.0 0.0 0.00 0.00 0.00 54 1014.5
20260506024605 19 146 0.0 0.0 0.00 0.00 0.00 54 1014.2
20260506024105 19 107 0.0 3.2 0.00 0.00 0.00 54 1014.2
20260506023605 19 105 0.0 1.6 0.00 0.00 0.00 53 1014.1
20260506023105 19 294 0.0 0.0 0.00 0.00 0.00 53 1014.1
20260506022604 19 293 0.0 0.0 0.00 0.00 0.00 53 1014.1
20260506015605 20 294 0.0 3.2 0.00 0.00 0.00 51 1013.8
20260506014105 20 315 0.0 0.0 0.00 0.00 0.00 51 1013.8
20260506012605 21 93 0.0 0.0 0.00 0.00 0.00 48 1013.7
20260506011605 21 311 0.0 4.8 0.00 0.00 0.00 48 1013.6
20260506011105 21 316 0.0 4.8 0.00 0.00 0.00 48 1013.7
20260506010605 21 332 1.6 4.8 0.00 0.00 0.00 47 1013.7
20260506005604 21 300 0.0 4.8 0.00 0.00 0.00 49 1013.6
20260506003605 21 62 1.6 4.8 0.00 0.00 0.00 49 1013.6
20260506003105 21 304 0.0 4.8 0.00 0.00 0.00 49 1013.6
20260506002605 21 285 1.6 3.2 0.00 0.00 0.00 48 1013.6
20260506001605 21 291 1.6 4.8 0.00 0.00 0.00 50 1013.5
20260506001105 21 302 1.6 4.8 0.00 0.00 0.00 50 1013.5
20260505235604 20 336 1.6 8.0 0.00 0.00 0.00 50 1013.6
20260505234105 20 328 1.6 4.8 0.00 0.00 0.00 50 1013.7
20260505233105 20 319 1.6 4.8 0.00 0.00 0.00 49 1013.9
20260505232105 21 308 0.0 4.8 0.00 0.00 0.00 49 1014.0
20260505231605 21 297 1.6 4.8 0.00 0.00 0.00 49 1014.1
20260505231105 21 315 1.6 4.8 0.00 0.00 0.00 48 1014.1
20260505230605 21 292 0.0 1.6 0.00 0.00 0.00 48 1014.1
20260505224604 21 308 0.0 1.6 0.00 0.00 0.00 49 1014.3
20260505224106 20 171 0.0 0.0 0.00 0.00 0.00 49 1014.3
20260505223107 21 302 0.0 4.8 0.00 0.00 0.00 49 1014.3
20260505222604 21 309 1.6 4.8 0.00 0.00 0.00 48 1014.3
20260505222105 21 300 0.0 1.6 0.00 0.00 0.00 47 1014.4
20260505221605 21 127 0.0 1.6 0.00 0.00 0.00 50 1014.4
20260505220605 21 200 0.0 3.2 0.00 0.00 0.00 50 1014.5
20260505220105 20 342 0.0 4.8 0.00 0.00 0.00 50 1014.6
20260505215604 20 323 0.0 4.8 0.00 0.00 0.00 49 1014.8
20260505214605 20 299 1.6 4.8 0.00 0.00 0.00 52 1014.8